Location: Bílinka
(49.3579°N, 14.3767°E)
Time: 22:31:09
(UTC+00:00)

PSLV R/B - Pass Details

Date: 31 March 2025
Orbit: 410 x 442 km, 97.7° (Epoch: 28 April)

Event Time Altitude Azimuth Distance (km) Brightness Sun altitude
Exits shadow 19:44:28 33° 32° (NNE) 768 4.5 -20.7°
Drops below altitude 10° 19:46:43 10° 0° (N) 1,546 6.5 -21.0°
Sets 19:48:47 0° 353° (N) 2,410 7.7 -21.3°
